QPF
0.04 0.04 0.04 0.03 0.03 0.04 0.04 0.05 0.06 0.06 0.07 0.08 0.09 0.07 0.05 0.03 0.03 0.03 0.03 0.03 0.04 0.04 0.05 0.05 0.04 0.03 0.03 0.03 0.04 0.04 0.05 0.04 0.04 0.06 0.08 0.09 0.10 0.09
0.03 0.03 0.03 0.03 0.03 0.03 0.04 0.04 0.05 0.05 0.05 0.06 0.07 0.08 0.05 0.03 0.04 0.03 0.03 0.04 0.03 0.03 0.03 0.04 0.03 0.03 0.03 0.03 0.03 0.04 0.06 0.06 0.05 0.06 0.07 0.08 0.10 0.10
0.02 0.02 0.02 0.02 0.04 0.03 0.04 0.04 0.05 0.05 0.05 0.05 0.05 0.05 0.05 0.05 0.05 0.04 0.04 0.04 0.04 0.04 0.04 0.03 0.02 0.02 0.02 0.02 0.02 0.03 0.04 0.07 0.07 0.07 0.08 0.09 0.10 0.10
0.02 0.02 0.02 0.02 0.04 0.04 0.04 0.04 0.05 0.06 0.06 0.06 0.05 0.05 0.04 0.05 0.05 0.04 0.03 0.03 0.04 0.04 0.03 0.02 0.02 0.02 0.02 0.02 0.02 0.02 0.03 0.05 0.07 0.08 0.08 0.09 0.10 0.09
0.02 0.02 0.02 0.02 0.03 0.04 0.04 0.04 0.04 0.04 0.05 0.05 0.05 0.06 0.06 0.06 0.05 0.03 0.02 0.03 0.03 0.03 0.02 0.02 0.02 0.02 0.02 0.02 0.02 0.02 0.02 0.03 0.04 0.05 0.06 0.07 0.08 0.08
0.02 0.02 0.02 0.02 0.03 0.04 0.04 0.04 0.04 0.03 0.04 0.04 0.04 0.05 0.06 0.06 0.06 0.05 0.04 0.03 0.03 0.02 0.02 0.02 0.02 0.03 0.02 0.02 0.02 0.02 0.02 0.02 0.03 0.04 0.06 0.08 0.09 0.08
0.03 0.02 0.02 0.01 0.01 0.02 0.02 0.03 0.03 0.04 0.04 0.04 0.04 0.04 0.05 0.05 0.05 0.06 0.06 0.05 0.04 0.03 0.04 0.03 0.03 0.02 0.02 0.03 0.02 0.02 0.02 0.02 0.04 0.06 0.08 0.09 0.11 0.10
0.03 0.02 0.01 0.01 0.01 0.01 0.01 0.02 0.02 0.03 0.04 0.04 0.04 0.05 0.06 0.05 0.05 0.06 0.07 0.07 0.06 0.05 0.05 0.05 0.04 0.03 0.02 0.02 0.03 0.03 0.02 0.02 0.04 0.06 0.08 0.10 0.11 0.11
0.02 0.02 0.01 0.01 0.01 0.02 0.02 0.02 0.02 0.02 0.03 0.04 0.04 0.06 0.06 0.06 0.07 0.07 0.08 0.08 0.07 0.05 0.05 0.05 0.06 0.05 0.03 0.02 0.02 0.03 0.03 0.02 0.03 0.05 0.07 0.09 0.09 0.09
0.02 0.02 0.02 0.02 0.01 0.02 0.03 0.03 0.04 0.04 0.03 0.04 0.05 0.06 0.05 0.05 0.06 0.06 0.07 0.08 0.07 0.05 0.05 0.05 0.05 0.04 0.03 0.03 0.02 0.02 0.03 0.03 0.02 0.02 0.02 0.03 0.04 0.03
0.02 0.02 0.02 0.02 0.01 0.02 0.03 0.05 0.05 0.04 0.03 0.05 0.05 0.05 0.04 0.04 0.04 0.05 0.07 0.08 0.08 0.07 0.05 0.04 0.04 0.04 0.04 0.03 0.02 0.01 0.01 0.02 0.02 0.01 0.00 0.01 0.01 0.01
0.03 0.02 0.02 0.02 0.03 0.03 0.03 0.05 0.05 0.04 0.03 0.04 0.04 0.05 0.05 0.06 0.05 0.05 0.07 0.07 0.06 0.06 0.04 0.03 0.04 0.04 0.04 0.04 0.03 0.01 0.01 0.01 0.01 0.01 0.00 0.00 0.00 0.00
0.02 0.03 0.03 0.04 0.04 0.04 0.04 0.04 0.04 0.04 0.05 0.06 0.07 0.08 0.09 0.08 0.08 0.07 0.07 0.06 0.05 0.05 0.03 0.02 0.03 0.03 0.03 0.03 0.03 0.03 0.02 0.01 0.01 0.01 0.01 0.00 0.00 0.00
0.02 0.01 0.02 0.03 0.04 0.06 0.06 0.06 0.05 0.04 0.06 0.06 0.07 0.08 0.09 0.08 0.07 0.07 0.06 0.04 0.04 0.03 0.02 0.02 0.02 0.03 0.03 0.03 0.03 0.02 0.02 0.02 0.02 0.01 0.02 0.01 0.00 0.00
0.01 0.01 0.01 0.02 0.02 0.03 0.03 0.03 0.02 0.04 0.05 0.05 0.06 0.06 0.06 0.05 0.04 0.04 0.03 0.03 0.03 0.02 0.01 0.01 0.01 0.02 0.03 0.03 0.03 0.03 0.03 0.02 0.02 0.02 0.02 0.02 0.01 0.01
0.02 0.01 0.01 0.01 0.02 0.02 0.02 0.02 0.02 0.03 0.04 0.05 0.05 0.05 0.04 0.03 0.02 0.02 0.02 0.03 0.02 0.02 0.02 0.01 0.01 0.02 0.02 0.03 0.03 0.02 0.02 0.02 0.02 0.02 0.02 0.02 0.02 0.02
0.02 0.02 0.02 0.02 0.02 0.02 0.02 0.02 0.02 0.02 0.02 0.03 0.03 0.04 0.04 0.03 0.03 0.02 0.02 0.02 0.02 0.02 0.02 0.01 0.01 0.01 0.01 0.02 0.02 0.02 0.01 0.01 0.02 0.02 0.02 0.02 0.02 0.01
0.01 0.02 0.02 0.01 0.01 0.02 0.02 0.01 0.01 0.01 0.01 0.01 0.01 0.01 0.01 0.01 0.01 0.01 0.01 0.02 0.02 0.02 0.02 0.02 0.02 0.01 0.01 0.01 0.01 0.01 0.01 0.01 0.01 0.01 0.01 0.02 0.02 0.02
0.00 0.01 0.01 0.01 0.01 0.01 0.01 0.00 0.00 0.00 0.00 0.00 0.00 0.00 0.01 0.01 0.01 0.01 0.00 0.01 0.01 0.01 0.01 0.01 0.01 0.01 0.02 0.02 0.01 0.00 0.00 0.01 0.01 0.01 0.01 0.01 0.01 0.01
0.00 0.00 0.00 0.00 0.00 0.00 0.00 0.00 0.00 0.00 0.00 0.00 0.00 0.00 0.00 0.00 0.00 0.00 0.00 0.00 0.00 0.01 0.00 0.00 0.00 0.01 0.01 0.01 0.01 0.00 0.00 0.00 0.01 0.01 0.01 0.01 0.01 0.00
0.00 0.00 0.00 0.00 0.00 0.00 0.00 0.00 0.00 0.00 0.00 0.00 0.00 0.00 0.00 0.00 0.00 0.00 0.00 0.00 0.00 0.00 0.00 0.00 0.00 0.00 0.00 0.00 0.00 0.00 0.00 0.00 0.00 0.00 0.01 0.01 0.01 0.01
0.00 0.00 0.00 0.00 0.00 0.00 0.00 0.00 0.00 0.00 0.00 0.00 0.00 0.00 0.00 0.00 0.00 0.00 0.00 0.00 0.00 0.00 0.00 0.00 0.00 0.00 0.01 0.01 0.01 0.00 0.00 0.00 0.00 0.00 0.00 0.00 0.01 0.01
0.00 0.00 0.00 0.00 0.00 0.00 0.00 0.00 0.00 0.00 0.00 0.00 0.00 0.00 0.00 0.00 0.00 0.00 0.00 0.00 0.00 0.00 0.00 0.00 0.00 0.00 0.00 0.00 0.01 0.01 0.00 0.00 0.00 0.00 0.00 0.00 0.00 0.00
MSLP
1016.97 1017.11 1017.26 1017.42 1017.58 1017.74 1017.90 1018.09 1018.32 1018.58 1018.88 1019.21 1019.54 1019.84 1020.08 1020.23 1020.30 1020.29 1020.24 1020.17 1020.14 1020.18 1020.33 1020.59 1020.95 1021.38 1021.85 1022.32 1022.75 1023.12 1023.44 1023.71 1023.95 1024.18 1024.42 1024.68 1024.97 1025.28
1017.01 1017.08 1017.14 1017.21 1017.29 1017.39 1017.52 1017.70 1017.93 1018.24 1018.61 1019.02 1019.45 1019.86 1020.22 1020.51 1020.70 1020.81 1020.87 1020.89 1020.92 1021.01 1021.16 1021.40 1021.71 1022.08 1022.47 1022.85 1023.20 1023.50 1023.74 1023.94 1024.12 1024.29 1024.47 1024.68 1024.92 1025.17
1017.17 1017.16 1017.14 1017.13 1017.13 1017.17 1017.25 1017.40 1017.64 1017.97 1018.38 1018.85 1019.35 1019.85 1020.30 1020.68 1020.97 1021.18 1021.31 1021.40 1021.48 1021.59 1021.74 1021.96 1022.22 1022.53 1022.86 1023.18 1023.47 1023.71 1023.91 1024.07 1024.21 1024.34 1024.49 1024.66 1024.84 1025.04
1017.46 1017.38 1017.29 1017.21 1017.14 1017.12 1017.16 1017.28 1017.51 1017.83 1018.25 1018.75 1019.29 1019.83 1020.33 1020.77 1021.12 1021.38 1021.56 1021.69 1021.79 1021.90 1022.04 1022.22 1022.45 1022.71 1022.99 1023.26 1023.51 1023.72 1023.90 1024.05 1024.17 1024.30 1024.43 1024.57 1024.72 1024.88
1017.86 1017.73 1017.58 1017.44 1017.33 1017.25 1017.25 1017.33 1017.53 1017.83 1018.24 1018.72 1019.26 1019.81 1020.33 1020.78 1021.15 1021.43 1021.62 1021.76 1021.86 1021.95 1022.06 1022.21 1022.39 1022.61 1022.85 1023.08 1023.31 1023.51 1023.69 1023.84 1023.98 1024.11 1024.24 1024.37 1024.50 1024.63
1018.31 1018.15 1017.97 1017.79 1017.63 1017.52 1017.47 1017.51 1017.66 1017.92 1018.28 1018.73 1019.24 1019.76 1020.26 1020.70 1021.06 1021.33 1021.52 1021.64 1021.72 1021.79 1021.87 1021.97 1022.11 1022.28 1022.48 1022.68 1022.89 1023.09 1023.28 1023.44 1023.60 1023.75 1023.88 1024.02 1024.14 1024.25
1018.76 1018.57 1018.37 1018.17 1017.98 1017.83 1017.73 1017.73 1017.82 1018.03 1018.33 1018.73 1019.18 1019.65 1020.11 1020.52 1020.86 1021.11 1021.28 1021.39 1021.44 1021.48 1021.52 1021.57 1021.66 1021.78 1021.94 1022.11 1022.30 1022.49 1022.68 1022.86 1023.03 1023.19 1023.34 1023.48 1023.61 1023.71
1019.14 1018.94 1018.73 1018.51 1018.29 1018.11 1017.97 1017.91 1017.95 1018.09 1018.33 1018.66 1019.05 1019.47 1019.88 1020.26 1020.57 1020.80 1020.96 1021.05 1021.08 1021.09 1021.09 1021.10 1021.14 1021.20 1021.31 1021.44 1021.59 1021.76 1021.93 1022.11 1022.29 1022.46 1022.61 1022.76 1022.88 1022.98
1019.43 1019.23 1019.01 1018.77 1018.54 1018.32 1018.15 1018.04 1018.01 1018.08 1018.26 1018.52 1018.85 1019.22 1019.59 1019.94 1020.23 1020.46 1020.61 1020.69 1020.71 1020.69 1020.65 1020.62 1020.60 1020.62 1020.66 1020.74 1020.84 1020.97 1021.11 1021.27 1021.43 1021.59 1021.74 1021.88 1022.00 1022.08
1019.64 1019.44 1019.22 1018.97 1018.72 1018.48 1018.26 1018.11 1018.03 1018.04 1018.15 1018.35 1018.63 1018.96 1019.30 1019.62 1019.91 1020.13 1020.28 1020.36 1020.37 1020.34 1020.27 1020.20 1020.13 1020.08 1020.06 1020.07 1020.11 1020.18 1020.28 1020.39 1020.52 1020.65 1020.78 1020.89 1020.99 1021.05
1019.84 1019.64 1019.41 1019.16 1018.89 1018.62 1018.38 1018.18 1018.06 1018.02 1018.08 1018.23 1018.46 1018.75 1019.07 1019.38 1019.65 1019.87 1020.02 1020.10 1020.11 1020.06 1019.97 1019.86 1019.74 1019.64 1019.55 1019.49 1019.47 1019.47 1019.50 1019.56 1019.63 1019.72 1019.80 1019.88 1019.94 1019.97
1020.06 1019.86 1019.63 1019.38 1019.10 1018.82 1018.56 1018.34 1018.18 1018.10 1018.12 1018.23 1018.42 1018.67 1018.96 1019.24 1019.50 1019.71 1019.85 1019.92 1019.92 1019.85 1019.74 1019.59 1019.44 1019.28 1019.14 1019.02 1018.92 1018.86 1018.83 1018.82 1018.83 1018.85 1018.87 1018.89 1018.90 1018.89
1020.36 1020.16 1019.93 1019.67 1019.39 1019.10 1018.83 1018.60 1018.42 1018.32 1018.31 1018.39 1018.54 1018.75 1018.99 1019.24 1019.46 1019.64 1019.76 1019.80 1019.77 1019.68 1019.54 1019.37 1019.18 1018.98 1018.80 1018.63 1018.48 1018.36 1018.26 1018.18 1018.12 1018.07 1018.03 1017.98 1017.92 1017.85
1020.70 1020.50 1020.27 1020.01 1019.74 1019.46 1019.19 1018.96 1018.78 1018.67 1018.64 1018.68 1018.80 1018.96 1019.15 1019.34 1019.50 1019.63 1019.69 1019.69 1019.62 1019.50 1019.33 1019.13 1018.92 1018.70 1018.49 1018.28 1018.10 1017.93 1017.77 1017.63 1017.50 1017.38 1017.26 1017.13 1017.00 1016.86
1021.05 1020.84 1020.60 1020.35 1020.08 1019.81 1019.57 1019.35 1019.19 1019.08 1019.03 1019.05 1019.12 1019.23 1019.35 1019.47 1019.55 1019.60 1019.59 1019.53 1019.41 1019.24 1019.05 1018.83 1018.60 1018.37 1018.15 1017.93 1017.72 1017.52 1017.32 1017.12 1016.93 1016.73 1016.53 1016.32 1016.11 1015.90
1021.31 1021.08 1020.83 1020.58 1020.32 1020.08 1019.86 1019.67 1019.52 1019.43 1019.38 1019.38 1019.41 1019.46 1019.51 1019.53 1019.53 1019.48 1019.39 1019.25 1019.07 1018.87 1018.64 1018.41 1018.18 1017.95 1017.73 1017.52 1017.30 1017.08 1016.84 1016.60 1016.34 1016.07 1015.78 1015.50 1015.21 1014.92
1021.40 1021.14 1020.87 1020.62 1020.37 1020.15 1019.96 1019.81 1019.70 1019.62 1019.58 1019.56 1019.56 1019.55 1019.52 1019.46 1019.36 1019.22 1019.04 1018.83 1018.59 1018.34 1018.10 1017.86 1017.63 1017.42 1017.21 1017.00 1016.79 1016.55 1016.29 1016.00 1015.68 1015.34 1014.98 1014.61 1014.25 1013.90
1021.25 1020.96 1020.68 1020.41 1020.18 1019.98 1019.83 1019.71 1019.63 1019.58 1019.55 1019.53 1019.49 1019.43 1019.34 1019.20 1019.01 1018.79 1018.53 1018.25 1017.97 1017.69 1017.43 1017.19 1016.97 1016.77 1016.58 1016.38 1016.17 1015.92 1015.63 1015.30 1014.92 1014.52 1014.09 1013.65 1013.22 1012.80
1020.89 1020.56 1020.26 1019.99 1019.76 1019.59 1019.46 1019.38 1019.34 1019.32 1019.30 1019.27 1019.21 1019.11 1018.97 1018.76 1018.52 1018.23 1017.91 1017.58 1017.26 1016.96 1016.70 1016.46 1016.25 1016.06 1015.88 1015.69 1015.46 1015.19 1014.88 1014.50 1014.08 1013.62 1013.13 1012.63 1012.15 1011.69
1020.38 1020.02 1019.70 1019.43 1019.21 1019.05 1018.95 1018.90 1018.88 1018.88 1018.88 1018.85 1018.78 1018.65 1018.47 1018.22 1017.93 1017.60 1017.24 1016.89 1016.55 1016.24 1015.97 1015.74 1015.54 1015.35 1015.16 1014.96 1014.72 1014.42 1014.07 1013.66 1013.19 1012.68 1012.15 1011.62 1011.10 1010.62
1019.82 1019.44 1019.11 1018.84 1018.63 1018.49 1018.41 1018.38 1018.38 1018.39 1018.39 1018.36 1018.28 1018.13 1017.93 1017.66 1017.34 1016.99 1016.62 1016.26 1015.92 1015.61 1015.33 1015.10 1014.89 1014.69 1014.49 1014.26 1013.99 1013.66 1013.27 1012.82 1012.32 1011.79 1011.23 1010.68 1010.16 1009.68
1019.29 1018.92 1018.59 1018.33 1018.13 1018.00 1017.94 1017.92 1017.93 1017.94 1017.94 1017.90 1017.81 1017.65 1017.43 1017.15 1016.83 1016.47 1016.10 1015.74 1015.41 1015.10 1014.83 1014.59 1014.36 1014.15 1013.91 1013.65 1013.34 1012.97 1012.55 1012.07 1011.55 1011.00 1010.45 1009.92 1009.41 1008.96
1018.87 1018.52 1018.21 1017.96 1017.78 1017.67 1017.61 1017.60 1017.60 1017.61 1017.60 1017.54 1017.43 1017.26 1017.03 1016.75 1016.43 1016.08 1015.72 1015.37 1015.05 1014.74 1014.47 1014.22 1013.97 1013.73 1013.46 1013.15 1012.80 1012.40 1011.94 1011.45 1010.92 1010.39 1009.87 1009.37 1008.91 1008.50
Thickness
5612 5612 5611 5612 5612 5612 5612 5610 5607 5604 5605 5606 5607 5608 5609 5609 5609 5610 5610 5609 5610 5611 5611 5612 5612 5612 5612 5612 5612 5611 5610 5609 5608 5608 5607 5606 5605 5604
5604 5603 5603 5603 5603 5603 5604 5603 5603 5601 5598 5598 5599 5600 5600 5601 5601 5602 5602 5602 5602 5603 5603 5603 5603 5603 5603 5603 5604 5603 5602 5602 5601 5600 5599 5598 5597 5595
5595 5594 5594 5594 5594 5594 5595 5595 5594 5594 5591 5591 5591 5592 5592 5592 5593 5594 5594 5595 5595 5596 5596 5595 5595 5595 5595 5595 5595 5595 5595 5595 5594 5594 5592 5591 5590 5588
5586 5585 5585 5586 5585 5586 5586 5587 5586 5586 5585 5583 5584 5584 5585 5586 5587 5587 5588 5589 5589 5590 5589 5589 5589 5588 5588 5588 5588 5588 5587 5588 5588 5587 5586 5585 5584 5582
5577 5577 5577 5577 5576 5577 5578 5578 5579 5580 5579 5578 5577 5578 5578 5579 5580 5581 5582 5583 5584 5584 5584 5583 5583 5583 5582 5582 5582 5581 5581 5581 5581 5580 5579 5579 5578 5576
5570 5570 5569 5569 5569 5569 5570 5570 5571 5571 5572 5572 5572 5572 5573 5574 5574 5574 5575 5577 5578 5579 5579 5579 5579 5578 5577 5577 5576 5575 5575 5575 5575 5575 5574 5574 5572 5571
5564 5564 5563 5563 5562 5562 5563 5563 5564 5565 5566 5566 5566 5567 5567 5567 5568 5569 5570 5571 5572 5574 5574 5575 5575 5574 5573 5572 5571 5570 5570 5570 5571 5570 5570 5569 5568 5567
5559 5559 5558 5558 5557 5557 5557 5558 5559 5560 5561 5562 5562 5563 5563 5564 5564 5565 5565 5565 5566 5570 5570 5571 5572 5571 5571 5570 5569 5569 5568 5568 5568 5567 5566 5565 5564 5563
5555 5555 5556 5555 5554 5553 5554 5555 5556 5557 5558 5559 5559 5560 5561 5562 5562 5562 5562 5562 5563 5567 5568 5567 5569 5568 5569 5569 5569 5568 5567 5566 5565 5564 5563 5562 5560 5559
5552 5551 5551 5550 5550 5550 5552 5554 5554 5555 5556 5558 5559 5560 5561 5560 5560 5560 5561 5561 5563 5565 5566 5564 5566 5566 5568 5567 5567 5566 5565 5564 5563 5562 5560 5559 5557 5555
5550 5549 5549 5548 5547 5548 5549 5551 5552 5553 5554 5556 5558 5559 5559 5559 5558 5557 5558 5559 5560 5562 5565 5564 5564 5565 5565 5565 5565 5564 5563 5562 5561 5559 5558 5556 5555 5553
5548 5548 5547 5546 5546 5546 5547 5548 5549 5551 5553 5555 5557 5558 5559 5559 5559 5558 5558 5558 5559 5560 5563 5563 5563 5563 5562 5564 5564 5562 5561 5560 5559 5557 5556 5554 5553 5550
5549 5548 5547 5546 5546 5546 5546 5547 5549 5550 5552 5555 5557 5559 5559 5559 5559 5559 5559 5560 5559 5560 5564 5563 5562 5562 5561 5561 5562 5562 5560 5559 5558 5557 5555 5554 5553 5549
5549 5549 5547 5546 5547 5547 5548 5549 5550 5551 5553 5555 5557 5559 5559 5560 5560 5561 5562 5562 5563 5563 5565 5565 5563 5561 5560 5559 5559 5561 5560 5559 5558 5556 5555 5554 5552 5549
5550 5549 5549 5548 5549 5550 5552 5552 5553 5554 5555 5557 5558 5559 5561 5562 5563 5562 5563 5564 5565 5565 5566 5566 5565 5563 5560 5558 5558 5559 5558 5558 5557 5556 5555 5553 5551 5549
5552 5553 5553 5553 5553 5554 5555 5556 5557 5558 5559 5559 5560 5562 5563 5563 5563 5564 5564 5565 5564 5565 5568 5567 5566 5564 5561 5560 5558 5557 5557 5556 5556 5555 5553 5552 5551 5549
5553 5556 5558 5559 5560 5561 5562 5563 5563 5563 5563 5564 5564 5564 5564 5565 5565 5566 5566 5566 5565 5566 5567 5568 5568 5566 5564 5561 5558 5557 5557 5556 5555 5554 5551 5550 5549 5547
5557 5560 5563 5565 5566 5567 5568 5568 5568 5568 5568 5569 5568 5568 5567 5567 5567 5568 5569 5568 5567 5568 5568 5568 5568 5566 5563 5563 5561 5558 5557 5555 5555 5553 5551 5547 5546 5547
5562 5566 5569 5571 5571 5572 5573 5573 5573 5573 5573 5573 5572 5572 5572 5571 5571 5571 5571 5571 5570 5570 5570 5570 5568 5565 5560 5559 5562 5561 5556 5555 5553 5551 5549 5546 5544 5545
5572 5574 5576 5577 5578 5578 5578 5578 5577 5577 5577 5576 5576 5575 5575 5574 5574 5574 5574 5573 5573 5572 5571 5571 5569 5567 5563 5561 5561 5561 5559 5555 5551 5549 5547 5546 5545 5543
5582 5584 5585 5585 5585 5585 5584 5583 5582 5581 5581 5580 5579 5578 5578 5577 5576 5576 5576 5575 5574 5573 5571 5570 5571 5570 5568 5564 5560 5559 5559 5557 5552 5548 5545 5542 5539 5537
5589 5590 5591 5591 5590 5590 5589 5588 5587 5586 5585 5583 5582 5581 5581 5580 5579 5578 5578 5577 5576 5575 5574 5574 5573 5571 5566 5561 5558 5557 5557 5556 5553 5549 5545 5540 5533 5529
5595 5595 5595 5595 5595 5594 5594 5592 5591 5589 5588 5587 5586 5584 5583 5582 5581 5580 5579 5579 5577 5576 5575 5573 5571 5569 5566 5563 5559 5557 5554 5551 5548 5544 5540 5538 5533 5529